Location: Hope
(40.9110°N, 74.9680°W)
Time: 00:40:51
(UTC-04:00)

VELOX 1 - Visible Passes

Search period start: 29 July 2021 00:00
Search period end: 08 August 2021 00:00
Orbit: 628 x 641 km, 98.3° (Epoch: 28 July)

Date Brightness Start Highest point End Pass type
(mag) Time Alt. Az. Time Alt. Az. Time Alt. Az.
29 Jul ? 03:19:15 10° ESE 03:22:26 20° ENE 03:25:38 10° NNE visible
29 Jul ? 04:54:23 10° SSW 04:58:30 39° W 05:02:40 10° NNW visible
30 Jul ? 03:40:11 10° SE 03:44:05 32° ENE 03:48:02 10° N visible
30 Jul ? 05:16:58 10° SSW 05:20:28 23° W 05:24:01 10° NW visible
31 Jul ? 04:01:32 10° SSE 04:05:50 54° ENE 04:10:10 10° N visible
01 Aug ? 04:23:13 10° SSE 04:27:38 87° W 04:32:05 10° NNW visible
02 Aug ? 03:10:52 10° ESE 03:13:33 16° ENE 03:16:16 10° NNE visible
02 Aug ? 04:45:13 10° S 04:49:29 50° W 04:53:49 10° NNW visible
03 Aug ? 03:31:32 10° ESE 03:35:11 26° ENE 03:38:51 10° NNE visible
03 Aug ? 05:07:35 10° SSW 05:11:25 29° W 05:15:18 10° NW visible
04 Aug ? 03:52:43 10° SE 03:56:53 42° ENE 04:01:05 10° N visible
05 Aug ? 04:14:15 10° SSE 04:18:38 74° ENE 04:23:05 10° N visible
06 Aug ? 03:02:40 10° E 03:04:41 13° ENE 03:06:41 10° NE visible
06 Aug ? 04:36:05 10° S 04:40:28 65° WSW 04:44:54 10° NNW visible
07 Aug ? 03:22:59 10° ESE 03:26:16 21° ENE 03:29:35 10° NNE visible
07 Aug ? 04:58:16 10° SSW 05:02:22 37° W 05:06:31 10° NNW visible
